Starlink 34306

operational
NORAD ID: 64259 Int'l Des: 2025-120 Owner: SPXS Country: US Constellation: starlink
LEOCIRCULAR

Starlink 34306について

説明を読み込み中...

リアルタイム位置

3D地球を読み込み中...

次回通過

高度履歴

Altitude vs Time

uPlot chart will show altitude changes over time

軌道要素

1 64259U 25120D 26095.42882053 .00034771 00000-0 11803-2 0 9997
2 64259 53.1604 352.2359 0000323 118.0439 242.0595 15.30207152 47969
Epoch: Apr 5, 2026 • Age: 13 hours

現在のステータス

高度 477.3 km
速度 7.63 km/s
衛星直下点 -8.14°S, 13.4°W
打ち上げ日 Jun 4, 2025
運用期間 0.8 years
タイプ internet

技術仕様

分類 Payload
質量 575.00 kg
乾燥質量 530.00 kg
総質量 575.00 kg
長さ 0.30 m
直径 4.10 m
スパン 29.00 m
形状 Box + pan
製造者 SPXS
バスタイプ Starlink V2MO
フェーズステータス In Orbit
所有者/国 SPXS/US

大規模コンステレーション

Loading constellations...